Location: Newark
(34.1333°N, 7.9667°W)
Time: 16:21:32
(UTC+00:00)

JUGNU - Pass Details

Date: 15 June 2023
Orbit: 835 x 862 km, 20.0° (Epoch: 22 September)

Event Time Altitude Azimuth Distance (km) Brightness Sun altitude
Rises 22:03:58 0° 244° (WSW) 3,413 ? -22.6°
Reaches altitude 10° 22:07:14 10° 228° (SW) 2,472 ? -23.0°
Enters shadow 22:08:53 15° 214° (SSW) 2,115 ? -23.2°
